www.pogodaiklimat.ru

Погода и климат >> Архив погоды >> Россия >> Крым >> Почтовое


ПОГОДА в Почтовом

  • Прогноз погоды в Почтовом
  • Монитор погоды в Почтовом

АРХИВ ПОГОДЫ в Почтовом

Время (UTC), дата Ветер
(напр.,м/с)
 
Видим.   Явления Облачность Т
(С)
Тd
(С)
f
(%)
Тe
(С)
Тes
(С)
Комфортность P
(гПа)
Po
(гПа)
Тmin
(С)
Tmax
(С)
R
(мм)
R24
(мм)
S
(см)
15 14.08 З 3 20 км ясно +29.6 +10.3 30 +30 +31 жарко 1007.7 988.0
18 14.08 В 1 20 км ясно +21.9 +12.8 56 +24 +24 комфорт 1009.2 989.0 +35.8
21 14.08 В 1 20 км ясно +18.3 +12.9 71 +20 +20 1007.8 987.4
00 15.08 В 1 20 км 1/0
[Ci fib]
+15.8 +12.7 82 +16 +16 1008.5 987.9
03 15.08 В 1 20 км 9/0
[Ac trans Ci fib]
+17.3 +11.9 71 +18 +18 1008.4 987.9 +15.5
06 15.08 ЮЗ 1 20 км 9/0
[Ac trans Ci sp]
+23.8 +14.8 57 +27 +31 жарко 1007.7 987.6 +15.5
09 15.08 ЮВ 2 10 км слаб. ливневой дождь 9/4 600 м
[Cb cap Ac und]
+25.8 +14.0 48 +28 +32 жарко 1007.2 987.3
12 15.08 З 3
{10}
20 км {ливн. осадки} 9/3 600 м
[Sc Ac trans Ci sp]
+29.3 +16.5 46 +33 +37 душно 1007.9 988.2
15 15.08 СВ 1 20 км 9/6 600 м
[Sc Ac trans Ci fib]
+27.6 +16.2 50 +31 +31 душно 1007.6 987.8 0.0
18 15.08 ЮВ 1 20 км в посл. час ливневой дождь 9/4 600 м
[Sc Ac trans Ci sp]
+24.0 +18.3 70 +28 +28 душно 1007.6 987.6 +29.7 0.0
21 15.08 штиль 0 20 км 8/4 600 м
[Sc Ac trans Ci fib]
+21.5 +18.5 83 +26 +26 душно 1008.6 988.4
00 16.08 штиль 0 20 км 8/0
[Ac trans Ci sp]
+19.8 +17.9 89 +22 +22 комфорт 1008.4 988.1
03 16.08 ЮВ 1 20 км 10/8 600 м
[Sc Ac As]
+19.0 +16.9 88 +22 +22 комфорт 1008.5 988.1 +19.0 0.0
06 16.08 В 1 20 км {ливн. осадки} 10/6 600 м
[Sc Ac As]
+21.2 +18.2 83 +25 +26 комфорт 1009.5 989.3 +19.0 0.0
09 16.08 ЮВ 1 20 км {ливн. осадки} 10/5 600 м
[Sc Ac As]
+24.6 +18.0 67 +29 +32 душно 1008.7 988.7
12 16.08 З 3 20 км {ливн. осадки} 10/5 600 м
[Sc Ac As]
+23.4 +17.8 71 +29 +31 душно 1009.2 989.1
15 16.08 З 1 20 км {ливн. осадки} 10/6 600 м
[Sc Ac As]
+22.6 +17.7 74 +28 +28 душно 1009.4 989.3 0.0
18 16.08 ЮЗ 1 10 км {ливн. осадки} 9/5 600 м
[Sc Ac und]
+21.6 +19.7 89 +27 +27 душно 1010.9 990.7 +25.5 0.0
21 16.08 штиль 0 20 км 9/4 600 м
[Sc Ac und]
+20.1 +19.3 95 +23 +23 комфорт 1011.0 990.7
00 17.08 ЮВ 1 20 км 10/0
[Ac As]
+19.4 +18.9 97 +23 +23 комфорт 1011.1 990.7
03 17.08 В 1 20 км ясно +16.6 +16.1 97 +17 +17 1011.9 991.3 +16.6
06 17.08 З 1 20 км 4/4 600 м
[Sc diur, vesp]
+20.9 +14.6 67 +25 +29 комфорт 1012.3 992.0 +16.0
09 17.08 З 2 20 км 4/3 600 м
[Cu Sc Ci fib]
+24.1 +9.7 40 +25 +36 комфорт 1012.3 992.1
12 17.08 З 4 20 км 4/0
[Ci sp]
+25.4 +7.6 32 +25 +33 комфорт 1011.7 991.6
15 17.08 СЗ 4 20 км 6/0
[Ac trans Ci sp]
+23.4 +7.3 36 +24 +25 комфорт 1011.9 991.7
18 17.08 В 1 20 км 3/0
[Ci fib]
+17.5 +9.1 58 +19 +19 1013.0 992.4 +26.2
21 17.08 В 2 20 км 8/0
[Ac As]
+14.8 +11.5 81 +14 +14 1013.4 992.6
00 18.08 В 1 20 км 8/0
[Ac As]
+15.1 +11.0 76 +16 +16 1012.7 991.9
03 18.08 В 1 20 км 10/0
[Ac As]
+14.8 +11.2 79 +15 +15 1012.5 991.7 +14.0
06 18.08 ЮВ 1 20 км 10/3 600 м
[Sc Ac As]
+17.2 +13.1 77 +18 +20 1012.9 992.3 +14.0
09 18.08 СВ 1 20 км 10/8 600 м
[Sc Ac As]
+21.2 +13.2 60 +24 +25 комфорт 1013.3 992.9
12 18.08 С 1 20 км 10/8 600 м
[Sc Ac As]
+22.3 +12.5 54 +25 +26 комфорт 1013.5 993.2
15 18.08 В 2 20 км слаб. ливневой дождь 10/5 600 м
[Cb cap Ac As]
+19.2 +15.7 80 +21 +22 комфорт 1014.8 994.3 0.0
18 18.08 В 2 10 км слаб. ливневой дождь 10/8 600 м
[Cb cap Ac As]
+16.3 +14.8 91 +16 +16 1016.0 995.3 +22.3 1
21 18.08 В 1 20 км в посл. час ливневой дождь 9/8 600 м
[Sc Ac trans]
+16.0 +14.8 93 +17 +17 1016.4 995.6
00 19.08 штиль 0 20 км {ливн. осадки} 8/0
[Ac trans]
+15.6 +14.7 94 +15 +15 1016.7 995.9
03 19.08 СВ 1 20 км 8/0
[Ac trans]
+15.7 +14.7 94 +16 +16 1017.3 996.5 +15.5 2
06 19.08 С 1 20 км 5/3 600 м
[Cu med, cong Ac trans]
+20.6 +16.4 77 +25 +29 комфорт 1017.3 996.9 +15.5 0.7
09 19.08 СВ 2 20 км 8/8 600 м
[Cu med, cong]
+24.4 +11.6 45 +26 +29 жарко 1017.0 996.8
12 19.08 С 3 20 км 5/5 600 м
[Cu med, cong]
+26.8 +9.7 34 +27 +32 жарко 1016.3 996.2
15 19.08 СВ 2 20 км 6/6 600 м
[Cu med, cong]
+26.8 +10.5 36 +28 +28 жарко 1016.3 996.2
18 19.08 В 1 20 км ясно +21.5 +10.8 51 +23 +23 комфорт 1018.0 997.6 +28.3
21 19.08 В 2 20 км ясно +17.4 +14.5 83 +18 +18 1018.6 997.9
00 20.08 В 1 20 км ясно +15.4 +14.0 91 +16 +16 1018.5 997.6
03 20.08 В 1 20 км 3/1 600 м
[Sc Ci sp]
+14.8 +13.9 94 +15 +15 1018.7 997.8 +14.5
06 20.08 СВ 1 20 км 1/0
[Ci fib]
+23.2 +15.8 63 +28 +35 душно 1018.0 997.7 +14.5
09 20.08 СВ 3 10 км 9/1 600 м
[Cu hum Ac und]
+27.1 +18.3 59 +32 +36 очень
душно
1017.6 997.6
12 20.08 СВ 5
{10}
10 км 6/3 600 м
[Cu Sc Ac trans Ci sp]
+29.1 +18.4 52 +34 +37 очень
душно
1016.4 996.6
15 20.08 СВ 3
{10}
10 км 6/4 600 м
[Sc Ac trans Ci fib]
+28.7 +16.9 49 +32 +33 душно 1016.8 996.9
18 20.08 СВ 1 20 км 9/9 600 м
[Sc]
+25.3 +16.6 59 +29 +29 душно 1017.6 997.5 +29.6
21 20.08 штиль 0 20 км 9/3 600 м
[Sc Ci sp]
+22.4 +17.0 72 +27 +27 душно 1017.5 997.2
00 21.08 В 1 20 км 5/0
[Ci fib]
+22.7 +17.0 70 +27 +27 душно 1016.7 996.4
03 21.08 СВ 1 20 км 6/0
[Ac trans Ci fib]
+23.0 +17.6 72 +28 +28 душно 1015.5 995.3 +21.5
06 21.08 СВ 4 20 км 8/0
[Ac As Ci sp]
+22.6 +19.7 84 +29 +32 очень
душно
1015.1 995.1 +21.5
12 21.08 СВ 4
{10}
20 км 8/5 600 м
[Sc Ci fib]
+33.3 +15.2 34 +35 +39 душно 1012.2 992.7

 

Местоположение метеостанции Почтовое (Крым, Россия): широта 44.83 долгота 33.95 высота над уровнем моря 176 м.

В архиве по умолчанию представлена погода в Почтовом за последнюю неделю. Архивные данные за месяц целиком и за предыдущие месяцы, начиная с января 2011 года, Вы можете получить, выбрав интересующий диапазон дат из раскрывающегося списка и нажав кнопку "Ввод!".


*Определитесь, кто Вы:
робот инопланетянин человек

Внимание! Время в таблицах - всемирное. Для получения местного времени необходимо прибавить поправку, которая равна 3 ч.

Смотрите также архив погоды в соседних городах и на ближайших метеорологических станциях:

Погода в Симферополе город (Крым, Россия) (19 км)
Погода в Симферополе (Крым, Россия) (22 км)
Погода на Ангарском Перевале (Крым, Россия) (33 км)
Погода в Алуште (Крым, Россия) (40 км)
Погода в Севастополе (город Севастополь, Россия) (41 км)
Погода на Ай-Петри (Крым, Россия) (41 км)
Погода в Никитском саду (Крым, Россия) (42 км)
Погода в Ялте (Крым, Россия) (43 км)
Погода в Херсонесском Маяке (город Севастополь, Россия) (53 км)
Погода в Белогорске (Крым, Россия) (57 км)

Пояснения к столбцам:

Ветер - указаны скорость ветра в м/с - средняя за 10 мин, порывы в срок и между сроками (в фигурных скобках) и направление, откуда дует ветер: С - северный, СВ - северо-восточный, В - восточный, ЮВ - юго-восточный, Ю - южный, ЮЗ - юго-западный, З - западный, СЗ - северо-западный.
Видимость - горизонтальная дальность видимости в метрах или километрах. При видимости от 1 до 10 км при отсутствии осадков обычно наблюдается дымка, при ухудшении видимости до 1 км и менее - туман. В сухую погоду видимость может ухудшаться дымом, пылью или мглою.
Явления - указаны атмосферные явления, наблюдавшиеся в срок или в последний час перед сроком; фигурными скобками обозначены явления, наблюдавшиеся между сроками (за 1-3 часа до срока); квадратными скобками обозначены град или гололедные отложения с указанием их диаметра в мм.
Облачность - указаны через наклонную черту общая и нижняя облачность в баллах и высота нижней границы облаков в метрах; квадратными скобками обозначены формы облаков: Ci - перистые, Cs - перисто-слоистые, Cc - перисто-кучевые, Ac - высококучевые, As - высокослоистые, Sc - слоисто-кучевые, Ns - слоисто-дождевые, Cu - кучевые, Cb - кучево-дождевые. Подробнее классификацию облаков см. в Атласе облаков (PDF).
T - Температура воздуха - температура, измеренная на высоте 2 м над землей.
Td - Температура точки росы - температура, при понижении до которой содержащийся в воздухе водяной пар достигнет насыщения.
f - Относительная влажность воздуха - влажноcть воздуха, измеренная на высоте 2 м над землей.
Te - Эффективная температура - температура, которую ощущает одетый по сезону человек в тени. Характеристика душности погоды. При расчете учитывается влияние влажности воздуха и скорости ветра на теплоощущения человека.
Tes - Эффективная температура на солнце - температура, которую ощущает человек, с поправкой на солнечный нагрев. Характеристика знойности погоды. Зависит от высоты солнца над горизонтом, облачности и скорости ветра. Ночью, в пасмурную погоду, а также при ветре 12 м/с и более поправка равна нулю.
P - Атмосферное давление - приведенное к уровню моря атмосферное давление.
Po - Атмосферное давление - измеренное на уровне метеостанции атмосферное давление.
Tmin - Минимальная температура - минимум температуры воздуха на высоте 2 м над землей.
Tmax - Максимальная температура - максимум температуры воздуха на высоте 2 м над землей.
R - Количество осадков - Количество выпавших осадков за период времени, мм. При наведении курсора мыши на число - период времени, за который выпало указанное количество осадков.
R24 - Количество осадков - Количество выпавших осадков за 24 часа, мм.
S - Снежный покров - Высота снежного покрова, см. При наведении курсора мыши на число - состояние снежного покрова и степень покрытия местности в баллах.